Weather History for Lakeland Region, FL

Change the Weather History Date:

Thursday, February 21, 2013

  Actual Average Record
Temperature  
Mean Temperature 70 °F -  
Max Temperature 82 °F 73 °F 86 °F (1997)
Min Temperature 57 °F 53 °F 39 °F (2009)
Cooling Degree Days 4    
Growing Degree Days 20 (Base 50)    
Moisture  
Dew Point 57 °F    
Average Humidity 74    
Maximum Humidity 94    
Minimum Humidity 37    
Precipitation  
Precipitation 0.00 in - - ()
Sea Level Pressure  
Sea Level Pressure 30.06 in    
Wind  
Wind Speed 4 mph (East)    
Max Wind Speed 9 mph    
Max Gust Speed -    
Visibility 11 miles    
Events      
Averages and records for this station are not official NWS values.
T = Trace of Precipitation, MM = Missing Value Source: NWS Daily Summary

Daily Weather History Graph

Daily Weather History Graph

Search for Another Location

Airport:

Trip Planner

Search our weather history database for the weather conditions in past years. The results will help you decide how hot, cold, wet, or windy it might be!

Date:

Astronomy

Feb. 21, 2013 Rise Set
Actual Time 7:00 AM EST 6:23 PM EST
Civil Twilight 6:36 AM EST 6:47 PM EST
Nautical Twilight 6:09 AM EST 7:14 PM EST
Astronomical Twilight 5:41 AM EST 7:41 PM EST
Moon 2:49 PM EST (2/21) 3:50 AM EST (2/21)
Length of Visible Light 12h 10m
Length of Day
11h 23m
Waxing Gibbous, 83% of the Moon is Illuminated
Feb 21
Waxing Gibbous
Feb 25
Full
Mar 4
Last Quarter
Mar 11
New
Mar 19
First Quarter

Hourly Weather History & Observations

Time (EST) Temp. Heat Index Dew Point Humidity Pressure Visibility Wind Dir Wind Speed Gust Speed Precip Events Conditions
12:15 AM 59.0 °F - 53.6 °F 82% 30.09 in 10.0 mi East 3.5 mph - N/A   Clear
12:35 AM 59.0 °F - 53.6 °F 82% 30.08 in 10.0 mi East 3.5 mph - N/A   Clear
1:15 AM 59.0 °F - 53.6 °F 82% 30.07 in 10.0 mi Calm Calm - N/A   Clear
1:35 AM 59.0 °F - 53.6 °F 82% 30.08 in 10.0 mi Calm Calm - N/A   Clear
1:55 AM 59.0 °F - 53.6 °F 82% 30.06 in 10.0 mi Calm Calm - N/A   Mostly Cloudy
2:15 AM 59.0 °F - 53.6 °F 82% 30.06 in 10.0 mi Calm Calm - N/A   Overcast
2:35 AM 60.8 °F - 53.6 °F 77% 30.06 in 10.0 mi NE 4.6 mph - N/A   Overcast
2:55 AM 59.0 °F - 53.6 °F 82% 30.06 in 10.0 mi NE 4.6 mph - N/A   Mostly Cloudy
3:15 AM 59.0 °F - 53.6 °F 82% 30.05 in 10.0 mi ENE 4.6 mph - N/A   Scattered Clouds
3:35 AM 59.0 °F - 53.6 °F 82% 30.06 in 10.0 mi NE 4.6 mph - N/A   Scattered Clouds
3:55 AM 59.0 °F - 53.6 °F 82% 30.04 in 10.0 mi ENE 5.8 mph - N/A   Scattered Clouds
4:15 AM 57.2 °F - 53.6 °F 88% 30.05 in 10.0 mi NE 4.6 mph - N/A   Clear
4:35 AM 57.2 °F - 53.6 °F 88% 30.05 in 10.0 mi ENE 4.6 mph - N/A   Clear
4:55 AM 57.2 °F - 53.6 °F 88% 30.06 in 10.0 mi ENE 4.6 mph - N/A   Clear
5:15 AM 57.2 °F - 53.6 °F 88% 30.06 in 10.0 mi NE 4.6 mph - N/A   Clear
5:35 AM 57.2 °F - 53.6 °F 88% 30.06 in 10.0 mi NE 5.8 mph - N/A   Clear
5:50 AM 57.2 °F - 55.4 °F 94% 30.06 in 10.0 mi ENE 5.8 mph - N/A   Partly Cloudy
6:50 AM 59.0 °F - 55.4 °F 88% 30.08 in 10.0 mi East 4.6 mph - N/A   Scattered Clouds
7:50 AM 60.8 °F - 55.4 °F 82% 30.10 in 10.0 mi NE 3.5 mph - N/A   Mostly Cloudy
8:50 AM 64.4 °F - 57.2 °F 77% 30.13 in 10.0 mi ENE 4.6 mph - N/A   Mostly Cloudy
9:50 AM 71.6 °F - 60.8 °F 69% 30.13 in 10.0 mi ESE 6.9 mph - N/A   Mostly Cloudy
10:50 AM 73.4 °F - 60.8 °F 65% 30.12 in 12.0 mi ESE 8.1 mph - N/A   Mostly Cloudy
11:50 AM 77.0 °F - 59.0 °F 54% 30.11 in 12.0 mi SSE 5.8 mph - N/A   Mostly Cloudy
12:50 PM 78.8 °F - 59.0 °F 51% 30.08 in 12.0 mi ESE 4.6 mph - N/A   Mostly Cloudy
1:50 PM 80.6 °F 80.5 °F 55.4 °F 42% 30.05 in 12.0 mi SSW 5.8 mph - N/A   Mostly Cloudy
2:51 PM 82.4 °F 81.4 °F 53.6 °F 37% 30.03 in 15.0 mi SSW 5.8 mph - N/A   Mostly Cloudy
3:52 PM 80.6 °F 80.5 °F 55.4 °F 42% 30.02 in 15.0 mi South 6.9 mph - N/A   Scattered Clouds
4:51 PM 82.4 °F 81.7 °F 55.4 °F 39% 30.01 in 15.0 mi South 9.2 mph - N/A   Mostly Cloudy
5:52 PM 78.8 °F - 55.4 °F 44% 30.01 in 15.0 mi SE 6.9 mph - N/A   Mostly Cloudy
6:55 PM 75.2 °F - 60.8 °F 61% 30.02 in 15.0 mi West 9.2 mph - N/A   Mostly Cloudy
7:50 PM 73.4 °F - 60.8 °F 65% 30.03 in 15.0 mi SW 4.6 mph - N/A   Mostly Cloudy
8:53 PM 69.8 °F - 60.8 °F 73% 30.04 in 15.0 mi Calm Calm - N/A   Mostly Cloudy
9:52 PM 66.2 °F - 60.8 °F 83% 30.05 in 15.0 mi Calm Calm - N/A   Mostly Cloudy
9:55 PM 66.2 °F - 60.8 °F 83% 30.05 in 10.0 mi Calm Calm - N/A   Clear
10:15 PM 64.4 °F - 60.8 °F 88% 30.06 in 10.0 mi ESE 6.9 mph - N/A   Scattered Clouds
10:35 PM 68.0 °F - 60.8 °F 78% 30.06 in 10.0 mi East 3.5 mph - N/A   Mostly Cloudy
10:55 PM 68.0 °F - 60.8 °F 78% 30.05 in 10.0 mi Calm Calm - N/A   Mostly Cloudy
11:15 PM 68.0 °F - 60.8 °F 78% 30.06 in 10.0 mi Calm Calm - N/A   Overcast
11:35 PM 66.2 °F - 60.8 °F 83% 30.06 in 10.0 mi Calm Calm - N/A   Overcast
11:55 PM 68.0 °F - 60.8 °F 78% 30.05 in 10.0 mi Calm Calm - N/A   Overcast